Location: Rehoboth Beach
(38.7438°N, 75.1341°W)
Time: 14:32:34
(UTC-04:00)

HST - Visible Passes

Search period start: 23 October 2014 00:00
Search period end: 02 November 2014 00:00
Orbit: 546 x 550 km, 28.5° (Epoch: 22 October)

Date Brightness Start Highest point End Pass type
(mag) Time Alt. Az. Time Alt. Az. Time Alt. Az.
26 Oct 3.1 19:04:27 10° S 19:06:01 12° SSE 19:07:34 10° SE visible
26 Oct 3.7 20:43:43 10° SW 20:43:54 11° SW 20:43:54 11° SW visible
27 Oct 3.1 18:56:24 10° SSW 18:58:35 14° SSE 19:00:46 10° SE visible
27 Oct 3.5 20:36:16 10° SW 20:37:03 13° SW 20:37:03 13° SW visible
28 Oct 3.0 18:48:35 10° SSW 18:51:09 16° SSE 18:53:43 10° SE visible
28 Oct 3.3 20:28:51 10° SW 20:30:10 16° SSW 20:30:10 16° SSW visible
29 Oct 2.9 18:40:55 10° SW 18:43:43 18° S 18:46:32 10° SE visible
29 Oct 3.1 20:21:30 10° SW 20:23:16 17° SSW 20:23:16 17° SSW visible
30 Oct 2.9 18:33:19 10° SW 18:36:17 19° S 18:39:16 10° SE visible
30 Oct 3.0 20:14:11 10° SW 20:16:23 18° SSW 20:16:23 18° SSW visible
31 Oct 2.9 18:25:48 10° SW 18:28:51 20° S 18:31:54 10° SE visible
31 Oct 3.0 20:06:57 10° SW 20:09:31 17° SSW 20:09:31 17° SSW visible
01 Nov 3.1 19:59:48 10° SW 20:02:10 15° SSW 20:02:42 15° S visible
